TimeEDT,TemperatureF,Dew PointF,Humidity,Sea Level PressureIn,VisibilityMPH,Wind Direction,Wind SpeedMPH,Gust SpeedMPH,PrecipitationIn,Events,Conditions,WindDirDegrees,DateUTC
12:14 AM,51.4,39.2,63,30.26,10.0,East,3.5,-,N/A,,Clear,90,2013-05-27 04:14:00
12:35 AM,50.9,39.7,66,30.26,10.0,ESE,3.5,-,N/A,,Clear,120,2013-05-27 04:35:00
12:55 AM,49.5,39.6,69,30.26,10.0,SE,4.6,-,N/A,,Clear,130,2013-05-27 04:55:00
1:14 AM,48.7,39.4,70,30.25,10.0,ESE,4.6,-,N/A,,Clear,120,2013-05-27 05:14:00
1:35 AM,47.5,39.0,72,30.25,10.0,East,3.5,-,N/A,,Clear,100,2013-05-27 05:35:00
1:55 AM,48.4,39.0,70,30.25,10.0,Calm,Calm,-,N/A,,Clear,0,2013-05-27 05:55:00
2:15 AM,48.0,39.2,72,30.25,10.0,Calm,Calm,-,N/A,,Clear,0,2013-05-27 06:15:00
2:35 AM,48.7,38.3,67,30.25,10.0,Calm,Calm,-,N/A,,Clear,0,2013-05-27 06:35:00
2:55 AM,48.2,37.6,67,30.25,10.0,Calm,Calm,-,N/A,,Clear,0,2013-05-27 06:55:00
3:15 AM,47.3,36.5,66,30.24,10.0,SE,3.5,-,N/A,,Clear,130,2013-05-27 07:15:00
3:35 AM,46.9,36.5,67,30.23,10.0,Calm,Calm,-,N/A,,Clear,0,2013-05-27 07:35:00
3:55 AM,46.0,36.5,69,30.23,10.0,Calm,Calm,-,N/A,,Clear,0,2013-05-27 07:55:00
4:15 AM,45.5,36.3,70,30.23,10.0,Calm,Calm,-,N/A,,Clear,0,2013-05-27 08:15:00
4:35 AM,44.4,35.8,72,30.23,10.0,Calm,Calm,-,N/A,,Clear,0,2013-05-27 08:35:00
4:54 AM,44.6,35.8,71,30.23,10.0,Calm,Calm,-,N/A,,Clear,0,2013-05-27 08:54:00
5:15 AM,44.1,35.8,73,30.22,10.0,East,3.5,-,N/A,,Clear,90,2013-05-27 09:15:00
5:35 AM,43.9,34.7,70,30.22,10.0,East,3.5,-,N/A,,Clear,90,2013-05-27 09:35:00
5:54 AM,44.8,33.1,64,30.22,10.0,Calm,Calm,-,N/A,,Clear,0,2013-05-27 09:54:00
6:15 AM,44.1,32.9,65,30.23,10.0,Calm,Calm,-,N/A,,Clear,0,2013-05-27 10:15:00
6:35 AM,45.1,33.8,65,30.23,10.0,ESE,3.5,-,N/A,,Clear,120,2013-05-27 10:35:00
6:54 AM,45.0,34.7,67,30.23,10.0,Calm,Calm,-,N/A,,Clear,0,2013-05-27 10:54:00
7:15 AM,46.2,35.6,66,30.23,10.0,ESE,4.6,-,N/A,,Clear,120,2013-05-27 11:15:00
7:35 AM,48.4,35.1,60,30.23,10.0,ESE,4.6,-,N/A,,Clear,120,2013-05-27 11:35:00
7:54 AM,50.7,34.3,53,30.24,10.0,SE,5.8,-,N/A,,Clear,130,2013-05-27 11:54:00
8:15 AM,53.1,31.8,44,30.22,10.0,ESE,8.1,-,N/A,,Clear,120,2013-05-27 12:15:00
8:35 AM,55.6,32.2,41,30.22,10.0,ESE,6.9,-,N/A,,Clear,120,2013-05-27 12:35:00
8:55 AM,57.9,32.7,39,30.23,10.0,SE,10.4,-,N/A,,Clear,130,2013-05-27 12:55:00
9:15 AM,60.3,34.2,38,30.23,10.0,SE,11.5,-,N/A,,Clear,130,2013-05-27 13:15:00
9:35 AM,59.9,35.4,40,30.23,10.0,SE,10.4,-,N/A,,Clear,130,2013-05-27 13:35:00
9:55 AM,59.9,36.9,42,30.22,10.0,SE,9.2,-,N/A,,Clear,140,2013-05-27 13:55:00
10:15 AM,59.9,37.2,43,30.22,10.0,SSE,10.4,-,N/A,,Clear,150,2013-05-27 14:15:00
10:35 AM,60.6,37.6,42,30.21,10.0,SSE,11.5,-,N/A,,Clear,160,2013-05-27 14:35:00
10:55 AM,61.0,38.7,44,30.21,10.0,SE,10.4,-,N/A,,Clear,140,2013-05-27 14:55:00
11:15 AM,61.7,37.8,41,30.20,10.0,SE,15.0,18.4,N/A,,Clear,130,2013-05-27 15:15:00
11:34 AM,61.9,37.0,40,30.19,10.0,SE,13.8,18.4,N/A,,Scattered Clouds,140,2013-05-27 15:34:00
11:55 AM,61.5,38.5,43,30.18,10.0,SSE,10.4,-,N/A,,Mostly Cloudy,160,2013-05-27 15:55:00
12:15 PM,60.8,41.0,48,30.18,10.0,SSE,10.4,-,N/A,,Overcast,160,2013-05-27 16:15:00
12:34 PM,60.8,42.3,50,30.17,10.0,SSE,12.7,-,N/A,,Overcast,150,2013-05-27 16:34:00
12:55 PM,60.3,42.4,52,30.16,10.0,SE,13.8,-,N/A,,Mostly Cloudy,130,2013-05-27 16:55:00
1:15 PM,60.4,44.4,56,30.16,10.0,SSE,9.2,-,N/A,Rain,Light Rain,160,2013-05-27 17:15:00
1:34 PM,59.9,46.4,61,30.16,10.0,SSE,12.7,20.7,N/A,,Overcast,160,2013-05-27 17:34:00
1:55 PM,59.0,45.7,61,30.17,10.0,South,10.4,-,N/A,,Overcast,170,2013-05-27 17:55:00
2:15 PM,57.7,44.6,62,30.17,10.0,SSE,6.9,-,N/A,Rain,Light Rain,160,2013-05-27 18:15:00
2:34 PM,56.7,46.4,69,30.18,10.0,South,9.2,-,N/A,Rain,Light Rain,180,2013-05-27 18:34:00
2:55 PM,54.5,46.9,76,30.18,10.0,South,9.2,-,N/A,Rain,Light Rain,170,2013-05-27 18:55:00
3:15 PM,53.2,47.7,81,30.17,10.0,SE,11.5,-,N/A,Rain,Light Rain,140,2013-05-27 19:15:00
3:35 PM,52.7,47.7,83,30.16,10.0,SE,8.1,-,N/A,Rain,Light Rain,140,2013-05-27 19:35:00
3:55 PM,52.5,47.1,82,30.15,10.0,SE,11.5,-,N/A,Rain,Light Rain,140,2013-05-27 19:55:00
4:15 PM,52.3,47.5,84,30.14,10.0,ESE,11.5,-,N/A,,Overcast,110,2013-05-27 20:15:00
4:35 PM,52.7,48.0,84,30.13,10.0,ESE,11.5,-,N/A,,Overcast,110,2013-05-27 20:35:00
4:55 PM,52.3,47.7,84,30.12,7.0,East,11.5,17.3,N/A,,Overcast,100,2013-05-27 20:55:00
5:15 PM,51.8,48.9,90,30.11,5.0,East,9.2,-,N/A,Rain,Light Rain,100,2013-05-27 21:15:00
5:35 PM,51.8,50.0,94,30.10,4.0,East,8.1,-,N/A,Rain,Light Rain,100,2013-05-27 21:35:00
5:55 PM,51.8,50.5,95,30.09,5.0,East,8.1,-,N/A,Rain,Light Rain,100,2013-05-27 21:55:00
6:14 PM,51.8,50.9,97,30.08,4.0,ESE,15.0,-,N/A,Rain,Light Rain,120,2013-05-27 22:14:00
6:35 PM,52.3,51.3,96,30.07,4.0,ESE,11.5,-,N/A,Rain,Light Rain,120,2013-05-27 22:35:00
6:55 PM,52.2,51.1,96,30.06,4.0,ESE,9.2,-,N/A,,Overcast,120,2013-05-27 22:55:00
7:14 PM,52.0,50.9,96,30.06,4.0,ESE,8.1,-,N/A,,Overcast,120,2013-05-27 23:14:00
7:35 PM,51.8,50.9,97,30.05,3.0,ESE,12.7,-,N/A,Rain,Light Rain,110,2013-05-27 23:35:00
7:55 PM,51.4,50.5,97,30.05,5.0,ESE,11.5,-,N/A,Rain,Light Rain,120,2013-05-27 23:55:00
8:14 PM,51.3,50.4,97,30.05,2.0,ESE,9.2,-,N/A,Rain,Light Rain,120,2013-05-28 00:14:00
8:35 PM,51.1,50.4,97,30.05,3.0,ESE,10.4,16.1,N/A,,Drizzle,120,2013-05-28 00:35:00
8:55 PM,50.9,50.4,98,30.04,3.0,ESE,8.1,-,N/A,Rain,Light Rain,110,2013-05-28 00:55:00
9:15 PM,50.9,50.4,98,30.03,3.0,ESE,8.1,-,N/A,Rain,Rain,110,2013-05-28 01:15:00
9:35 PM,51.1,50.5,98,30.03,3.0,ESE,8.1,-,N/A,,Light Drizzle,110,2013-05-28 01:35:00
9:55 PM,51.3,50.9,99,30.03,3.0,ESE,10.4,-,N/A,Rain,Light Rain,110,2013-05-28 01:55:00
10:15 PM,51.3,50.9,99,30.03,3.0,ESE,9.2,-,N/A,Rain,Light Rain,120,2013-05-28 02:15:00
10:35 PM,51.3,50.9,99,30.03,3.0,ESE,13.8,17.3,N/A,Rain,Light Rain,110,2013-05-28 02:35:00
10:55 PM,51.4,51.1,99,30.02,3.0,ESE,13.8,-,N/A,Rain,Light Rain,120,2013-05-28 02:55:00
11:15 PM,51.4,51.1,99,30.01,5.0,ESE,11.5,17.3,N/A,Rain,Rain,120,2013-05-28 03:15:00
11:35 PM,51.8,51.3,98,30.01,5.0,ESE,10.4,17.3,N/A,Rain,Rain,120,2013-05-28 03:35:00
11:54 PM,51.8,51.4,99,30.00,7.0,ESE,13.8,18.4,N/A,Rain,Light Rain,120,2013-05-28 03:54:00